User: anonymous   Login
Location: Clarks Summit,Pa.
(41.5000°N, 75.6000°W)
Time: 19:47:39
(UTC-05:00)
Language:

Envisat - Orbit

View from above orbital plane
View from above orbital plane
View from above satellite
View from above satellite

Ground track
Ground track

The orbit data is extracted from the following two-line orbital elements,

1 27386U 02009A   22016.50823385  .00000109  00000-0  49485-4 0  9996
2 27386  98.1676   4.8811 0001203  85.7405  23.0592 14.38068857 41626
Epoch (UTC): 16 January 2022 12:11:51
Eccentricity: 0.0001203
inclination: 98.1676°
perigee height: 764 km
apogee height: 766 km
right ascension of ascending node: 4.8811°
argument of perigee: 85.7405°
revolutions per day: 14.38068857
mean anomaly at epoch: 23.0592°
orbit number at epoch: 4162

The dashed part of the orbit path shows where the satellite is in the earth's shadow,  

DLR